Flag for U.S.A. Weather past 2 weeks in Mason, Ohio, U.S.A.

Now
71 °F

Partly cloudy.


Feels Like: 65 °F
Forecast: 70 / 76 °F
Wind: No wind

Location: Butler County Regional Airport

Current Time: Aug 31, 2014 at 5:06:38 AM

Latest Report: Aug 31, 2014 at 3:53 AM


Visibility: 7 mi

Pressure: 30.01 "Hg

Humidity: 96%

Dew point: 70 °F

Location of MasonLocation

Historic Weather in Mason — Graph

°F

Mason temperature yesterday

Maximum temperature yesterday: 86 °F (at 12:53 PM)
Minimum temperature yesterday: 68 °F (at 6:53 AM)
Average temperature yesterday: 76 °F

Past Weeks' High & Low Weather Summary

 TemperatureHumidityPressure
High92 °F (Aug 26, 4:53 PM)100% (Aug 19, 6:02 AM)30.14 "Hg (Aug 19, 6:02 AM)
Low48 °F (Aug 16, 4:53 AM)48% (Aug 29, 2:53 PM)29.79 "Hg (Aug 18, 4:53 PM)
Average75 °F81%29.99 "Hg
* Reported Aug 16 3:53 AM — Aug 31 3:53 AM, Mason, Weather by CustomWeather, © 2014

Note: Actual official high and low records may vary slightly from our data, if they occured in-between our weather recording intervals... More about our weather records

Advertising

Mason weather history for previous 24 hours

 ConditionsComfort  
Time TempWeatherWind HumidityBarometerVisibility
3:53 AM
Aug 31
71 °FPartly cloudy.No wind96%30.01 "Hg7 mi
2:53 AM71 °FPassing clouds.No wind96%30.02 "Hg7 mi
1:53 AM71 °FPassing clouds.No wind96%30.03 "Hg7 mi
12:53 AM72 °FPassing clouds.No wind91%30.03 "Hg10 mi
11:53 PM
Aug 30
72 °FFog.No wind97%30.03 "Hg6 mi
10:53 PM73 °FFog.No wind94%30.03 "Hg6 mi
9:53 PM74 °FFog.3 mph94%30.04 "Hg6 mi
8:53 PM74 °FLight rain. Passing clouds.5 mph94%30.03 "Hg7 mi
7:53 PM75 °FFog.6 mph90%30.01 "Hg6 mi
6:53 PM76 °FLight rain. Fog.8 mph88%30.01 "Hg6 mi
5:53 PM81 °FCloudy.5 mph72%30.00 "Hg10 mi
4:53 PM84 °FSunny.5 mph65%29.99 "Hg10 mi
3:53 PM86 °FSunny.No wind57%30.00 "Hg10 mi
2:53 PM86 °FScattered clouds.8 mph57%30.03 "Hg10 mi
1:53 PM82 °FPartly sunny.5 mph65%30.03 "Hg10 mi
12:53 PM86 °FSunny.N/A57%30.05 "Hg10 mi
11:53 AM83 °FScattered clouds.7 mph61%30.05 "Hg10 mi
10:53 AM82 °FScattered clouds.5 mph65%30.05 "Hg10 mi
9:53 AM78 °FPartly sunny.5 mph76%30.05 "Hg10 mi
8:53 AM76 °FSunny.No wind82%30.05 "Hg10 mi
7:53 AM70 °FFog.No wind97%30.04 "Hg6 mi
6:53 AM68 °FFog.No wind100%30.03 "Hg6 mi
5:53 AM70 °FFog.3 mph97%30.03 "Hg5 mi
Weather by CustomWeather, © 2014

See weather overviewHow to use our weather pages